Meteo Giornale » Osservazioni meteo Italia » Pescara

ore: 02:50 - Osservazioni Meteo Pescara
Lat. 42° 26' N Lon. 14° 12' E Alt. 10 metri s.l.m.

molto_nuvoloso Europe/Rome

9 °C

Molto Nuvoloso

Temp. 24 Ore

9 °C

14 °C

Sud-Ovest

9.3 Km/h

Dew point 7 °C

Umidità 87 %

Visibilità  10 Km

Il sole sorge alle ore 06:58

Il sole tramonta alle ore 16:39

Data e Ora Cielo e Fenomeni T °C DP °C Um. % Pres. hPa Vis. km Vento km/h
Oggi h: 02:50 molto_nuvoloso Molto Nuvoloso 9 7 87 1015 10 SO 9.3
Oggi h: 01:50 coperto Coperto 9 7 87 1015 10 SO 7.4
Oggi h: 00:50 molto_nuvoloso Molto Nuvoloso 9 6 81 1015 10 SO 11.1
Ieri h: 23:50 coperto Coperto 11 6 71 1016 10 O/SO 7.4
Ieri h: 22:50 molto_nuvoloso Molto Nuvoloso 12 6 66 1016 10 N 3.7
Ieri h: 21:50 molto_nuvoloso Molto Nuvoloso 12 5 62 1016 10 O/NO 11.1
Ieri h: 20:50 molto_nuvoloso Molto Nuvoloso 12 6 66 1016 10 O/NO 9.3
Ieri h: 19:50 molto_nuvoloso Molto Nuvoloso 12 6 66 1016 10 NO 11.1
Ieri h: 18:50 molto_nuvoloso Molto Nuvoloso 12 6 66 1016 10 NO 9.3
Ieri h: 17:50 molto_nuvoloso Molto Nuvoloso 13 7 66 1016 10 N 3.7
Ieri h: 16:50 molto_nuvoloso Molto Nuvoloso 13 7 66 1016 10 N 3.7
Ieri h: 15:50 molto_nuvoloso Molto Nuvoloso 13 7 66 1015 10 N 5.5
Ieri h: 14:50 nuvoloso Nuvoloso 14 7 62 1015 10 N 5.5
Ieri h: 13:50 molto_nuvoloso Molto Nuvoloso 13 7 66 1016 10 NO 9.3
Ieri h: 12:50 nuvoloso Nuvoloso 13 7 66 1016 10 NO 11.1
Ieri h: 11:50 nuvoloso Nuvoloso 14 7 62 1016 10 NO 11.1
Ieri h: 10:50 molto_nuvoloso Molto Nuvoloso 14 8 67 1016 10 NO 9.3
Ieri h: 09:50 nuvoloso Nuvoloso 13 8 71 1016 10 NO 11.1
Ieri h: 08:50 nuvoloso Nuvoloso 13 7 66 1016 10 O/NO 9.3
Ieri h: 07:55 nuvoloso Nuvoloso 12 7 71 1016 10 NO 9.3
Ieri h: 07:50 coperto Coperto 12 7 71 1016 10 NO 9.3
Ieri h: 06:50 coperto Coperto 11 9 87 1015 10 N 5.5
Ieri h: 05:50 coperto Coperto 11 8 81 1015 10 S/SO 7.4
Ieri h: 04:50 coperto Coperto 11 9 87 1015 10 SO 7.4
Ieri h: 03:50 coperto Coperto 10 9 93 1015 9 N 5.5